Volver al catálogo

METEOR 2-8 DEB

ActivoPO
NORAD 36859·DEBRIS·🇷🇺 Russia

Lanzado Mar 25, 1982 desde Plesetsk Cosmodrome

Loading…

Próximos Pases (próximas 24 horas)

TLE

ActualizadoSource: Space-Track

Época: Sep 14, 2026, 09:22 UTC

1 36859U 82025AW  26257.39082061  .00000868  00000-0  36839-3 0  9993
2 36859  82.5147 139.3559 0032565 212.1224 147.7975 14.24128357115701

Sigue METEOR 2-8 DEB en tiempo real con AllMySat

Download on the App Store